Tracking 30160 objects as of 13-Feb-2025
HD Live streaming from Space Station
objects crossing your sky now

HULIANGWANG DIGUI-04

Track HULIANGWANG DIGUI-04 now!
10-day predictions


NORAD ID: 62326
Int'l Code: 2024-240D
Perigee: 1,115.5 km
Apogee: 1,135.5 km
Inclination: 86.5 °
Period: 107.7 minutes
Semi major axis: 7496 km
RCS: Unknown
Launch date: December 16, 2024
Source: People's Republic of China (PRC)
Launch site: Wenchang Satellite Launch Center (WSC)
Your satellite tracking list
Your tracking list is empty




NASA's NSSDC Master Catalog

Two Line Element Set (TLE):
1 62326U 24240D   25044.58206342  .00000083  00000-0  12891-3 0  9991
2 62326  86.5038 148.4164 0013355 131.7681 228.4604 13.37565328  7919
Source of the keplerian elements: AFSPC